Location: Pl�tzky
(52.0521°N, 11.8020°E)
Time: 10:30:45
(UTC+00:00)

N. Korean satellite - Pass Details

Date: 27 January 2021
Orbit: 451 x 502 km, 97.2° (Epoch: 07 March)

Event Time Altitude Azimuth Distance (km) Brightness Sun altitude
Rises 03:48:32 0° 27° (NNE) 2,513 10.6 -29.3°
Reaches altitude 10° 03:51:08 10° 47° (NE) 1,621 9.8 -28.9°
Maximum altitude 03:53:32 17° 91° (E) 1,226 9.4 -28.5°
Drops below altitude 10° 03:55:53 10° 135° (SE) 1,596 9.6 -28.1°
Sets 03:58:25 0° 156° (SSE) 2,458 10.4 -27.7°
